Find Starlink 33930

NORAD ID: 63776 Int'l Des: 2025-091 Owner: SPXS Country: US Constellation: starlink operational
LEOCIRCULAR

現在のビュー

3D地球を読み込み中...

About Starlink 33930

Starlink 33930 (NORAD 63776) is a starlink constellation satellite (v2 mini) launched May 2, 2025 by SPXS of US. It operates in LEO, CIRCULAR orbit with a mass of 575.00 kg.

Starlink 33930について

説明を読み込み中...

次回通過

Passes for default location (London). Set your location on the main map for personalized predictions.

高度履歴

Loading altitude history...

軌道要素

1 63776U 25091B 26171.05210717 .00016663 00000-0 61333-3 0 9997
2 63776 43.0021 194.7547 0001639 282.6686 77.3983 15.27599174 64552
Epoch: Jun 20, 2026 • Age: 16 hours

現在のステータス

高度 481.9 km
速度 7.63 km/s
衛星直下点 6.64°N, 34.48°E
打ち上げ日 May 2, 2025
運用期間 1.1 years
タイプ internet

技術仕様

分類 Payload
質量 575.00 kg
乾燥質量 530.00 kg
総質量 575.00 kg
長さ 0.30 m
直径 4.10 m
スパン 29.00 m
形状 Box + pan
製造者 SPXS
バスタイプ Starlink V2MO
フェーズステータス In Orbit
所有者/国 SPXS/US

Most Searched